User: anonymous   Login
Location: Unspecified
(0.0000°N, 0.0000°E)
Time: 21:44:55
(UTC+00:00)
Language:

DICE 1 - Orbit

View from above orbital plane
View from above orbital plane
View from above satellite
View from above satellite

Ground track
Ground track

The orbit data is extracted from the following two-line orbital elements,

1 37851U 11061B   24107.86447543  .00158467  00000-0  23621-2 0  9995
2 37851 101.7068 242.3734 0076957 219.8945 139.6620 15.51109434683025
Epoch (UTC): 16 April 2024 20:44:50
Eccentricity: 0.0076957
inclination: 101.7068°
perigee height: 361 km
apogee height: 466 km
right ascension of ascending node: 242.3734°
argument of perigee: 219.8945°
revolutions per day: 15.51109434
mean anomaly at epoch: 139.6620°
orbit number at epoch: 68302

The dashed part of the orbit path shows where the satellite is in the earth's shadow,  

DLR